,

(GMT )
Aqaba

Weather History for OJAQ - January, 2014

Change the Weather History Date:

Friday, January 17, 2014

  Actual Average Record
Temperature  
Mean Temperature 63 °F -  
Max Temperature 73 °F - - ()
Min Temperature 53 °F - - ()
Degree Days  
Heating Degree Days 2    
Growing Degree Days 13 (Base 50)    
Moisture  
Dew Point 41 °F    
Average Humidity 45    
Maximum Humidity 67    
Minimum Humidity 19    
Precipitation  
Precipitation 0.00 in - - ()
Sea Level Pressure  
Sea Level Pressure 30.07 in    
Wind  
Wind Speed 5 mph ()    
Max Wind Speed 11 mph    
Max Gust Speed -    
Visibility 6.0 miles    
Events      
T = Trace of Precipitation, MM = Missing Value Source: Averaged Metar Reports

Daily Weather History Graph

Daily Weather History Graph

Search for Another Location

Airport or City:

Astronomy

Jan. 17, 2014 Rise Set
Actual Time 6:35 AM EET 5:04 PM EET
Civil Twilight 6:09 AM EET 5:30 PM EET
Nautical Twilight 5:40 AM EET 5:59 PM EET
Astronomical Twilight 5:11 AM EET 6:28 PM EET
Moon 6:22 PM EET (1/17) 7:00 AM EET (1/17)
Length of Visible Light 11h 20m
Length of Day
10h 29m
Full, 99% of the Moon is Illuminated
Jan 17
Full
Jan 24
Last Quarter
Jan 30
New
Feb 6
First Quarter
Feb 15
Full

Hourly Weather History & Observations

Time (EET) Temp. Dew Point Humidity Pressure Visibility Wind Dir Wind Speed Gust Speed Precip Events Conditions
2:00 AM 56 °F 46 °F 59% 30.16 in 6 mi Calm Calm - -  
2:00 AM 57.2 °F 46.4 °F 67% 30.01 in - NNE 4.6 mph - N/A   Clear
5:00 AM 56 °F 44 °F 53% 29.99 in 6 mi NNE 8.9 mph - -  
5:00 AM 57.2 °F 44.6 °F 63% 30.01 in - NNE 4.6 mph - N/A   Clear
7:00 AM 55.4 °F 44.6 °F 67% 30.04 in - NNE 6.9 mph - N/A   Clear
8:00 AM 54 °F 43 °F 56% 30.05 in 6 mi NNE 6.9 mph - -  
8:00 AM 53.6 °F 42.8 °F 67% 30.06 in - NNE 6.9 mph - N/A   Clear
9:00 AM 55.4 °F 44.6 °F 67% 30.06 in - North 6.9 mph - N/A   Clear
10:00 AM 59.0 °F 39.2 °F 48% 30.09 in - North 6.9 mph - N/A   Clear
11:00 AM 67 °F 42 °F 28% 30.08 in 6 mi North 9.2 mph - -  
11:00 AM 68.0 °F 41.0 °F 37% 30.09 in - North 9.2 mph - N/A   Clear
12:00 PM 69.8 °F 37.4 °F 31% 30.06 in - North 9.2 mph - N/A   Clear
1:00 PM 73.4 °F 32.0 °F 22% 30.04 in - North 9.2 mph - N/A   Clear
2:00 PM 71.6 °F 41.0 °F 33% 30.04 in - North 6.9 mph - N/A   Clear
5:00 PM 71 °F 38 °F 19% 30.04 in 6 mi North 11.2 mph - -  
5:00 PM 71.6 °F 37.4 °F 29% 30.04 in - North 5.8 mph - N/A   Clear
6:00 PM 68.0 °F 37.4 °F 33% 30.06 in - North 5.8 mph - N/A   Clear
7:00 PM 66.2 °F 33.8 °F 30% 30.06 in - NNW 3.5 mph - N/A   Clear
8:00 PM 65 °F 38 °F 26% 30.13 in 6 mi North 5.8 mph - -  
8:00 PM 64.4 °F 37.4 °F 37% 30.12 in - North 5.8 mph - N/A   Clear
9:00 PM 62.6 °F 41.0 °F 45% 30.12 in - NNE 4.6 mph - N/A   Clear
10:00 PM 60.8 °F 41.0 °F 48% 30.15 in - NNW 5.8 mph - N/A   Clear
11:00 PM 59 °F 44 °F 46% 30.15 in 6 mi Calm Calm - -  
11:00 PM 59.0 °F 44.6 °F 59% 30.12 in - Calm Calm - N/A   Clear